Flag for U.S.A. Weather past 2 weeks in Chico, California, U.S.A.

48 °F

Broken clouds.

Feels Like: 46 °F
Forecast: 40 / 53 °F
Wind: 6 mph from East

Location: Chico Municipal

Current Time: Nov 24, 2015 at 3:17:03 PM

Latest Report: Nov 24, 2015 at 1:47 PM

Visibility: 10 mi

Pressure: 29.77 "Hg

Humidity: 71%

Dew point: 39 °F

Location of ChicoLocation

Historic Weather in Chico — Graph


Chico temperature yesterday

Maximum temperature yesterday: 64 °F (at 12:57 PM)
Minimum temperature yesterday: 41 °F (at 7:50 AM)
Average temperature yesterday: 56 °F

Past Weeks' High & Low Weather Summary

High73 °F (Nov 20, 1:58 PM)100% (Nov 9, 6:47 PM)30.45 "Hg (Nov 9, 6:47 PM)
Low25 °F (Nov 16, 7:55 AM)29% (Nov 16, 2:47 PM)29.68 "Hg (Nov 15, 6:53 AM)
Average54 °F68%30.06 "Hg
* Reported Nov 9 12:48 PM — Nov 24 12:55 PM, Chico, Weather by CustomWeather, © 2015

Note: Actual official high and low records may vary slightly from our data, if they occured in-between our weather recording intervals... More about our weather records


Chico weather history for previous 24 hours

Time TempWeatherWind HumidityBarometerVisibility
12:55 PM
Tue, Nov 24
45 °FPartly sunny.12 mph76%29.76 "Hg10 mi
12:00 PM52 °FThunderstorms. Broken clouds.14 mph54%29.76 "Hg10 mi
11:47 AM55 °FScattered showers. Broken clouds.14 mph72%29.75 "Hg10 mi
10:50 AM54 °FCloudy.21 mph82%29.77 "Hg10 mi
9:48 AM52 °FMostly cloudy.21 mph88%29.76 "Hg10 mi
8:50 AM50 °FLight rain. Overcast.23 mph94%29.77 "Hg10 mi
7:45 AM52 °FOvercast.26 mph82%29.77 "Hg20 mi
6:45 AM50 °FPassing clouds.25 mph82%29.77 "Hg10 mi
5:35 AM50 °FPassing clouds.18 mph82%29.82 "Hg10 mi
5:15 AM50 °FPassing clouds.22 mph82%29.81 "Hg10 mi
4:55 AM50 °FPassing clouds.23 mph82%29.79 "Hg10 mi
4:35 AM50 °FClear.22 mph88%29.80 "Hg10 mi
4:15 AM50 °FClear.23 mph88%29.82 "Hg10 mi
3:55 AM50 °FClear.22 mph88%29.84 "Hg10 mi
3:35 AM50 °FClear.22 mph88%29.84 "Hg10 mi
3:15 AM50 °FClear.17 mph88%29.84 "Hg10 mi
2:55 AM50 °FClear.18 mph88%29.84 "Hg10 mi
2:35 AM50 °FClear.15 mph88%29.84 "Hg10 mi
2:15 AM50 °FClear.20 mph88%29.83 "Hg10 mi
1:55 AM50 °FClear.20 mph94%29.83 "Hg10 mi
1:35 AM52 °FClear.15 mph88%29.83 "Hg10 mi
1:15 AM52 °FPassing clouds.14 mph88%29.83 "Hg10 mi
12:55 AM52 °FOvercast.16 mph88%29.84 "Hg10 mi
12:35 AM52 °FPassing clouds.20 mph88%29.84 "Hg10 mi
12:15 AM52 °FPassing clouds.18 mph88%29.84 "Hg10 mi
11:55 PM
Mon, Nov 23
54 °FPassing clouds.21 mph82%29.84 "Hg10 mi
10:55 PM55 °FPassing clouds.9 mph77%29.85 "Hg10 mi
10:35 PM55 °FPassing clouds.10 mph77%29.85 "Hg10 mi
10:15 PM55 °FPassing clouds.10 mph77%29.85 "Hg10 mi
9:55 PM55 °FPassing clouds.10 mph77%29.86 "Hg10 mi
9:35 PM55 °FClear.8 mph77%29.86 "Hg10 mi
8:55 PM57 °FClear.12 mph72%29.85 "Hg10 mi
8:35 PM57 °FPassing clouds.10 mph72%29.85 "Hg10 mi
7:55 PM57 °FClear.8 mph72%29.86 "Hg10 mi
6:55 PM55 °FClear.8 mph77%29.87 "Hg10 mi
6:35 PM57 °FClear.6 mph72%29.88 "Hg10 mi
6:15 PM57 °FClear.No wind72%29.88 "Hg10 mi
5:55 PM57 °FClear.No wind67%29.87 "Hg10 mi
5:47 PM57 °FClear.12 mph72%29.86 "Hg10 mi
4:47 PM63 °FClear.12 mph59%29.86 "Hg10 mi
Weather by CustomWeather, © 2015

See weather overviewHow to use our weather pages